カタログに戻る

DMSP 5D-2 F13 DEB

運用中PO
NORAD 42271·DEBRIS·🇺🇸 United States

打ち上げ Mar 24, 1995 から Vandenberg Space Force Base

Loading…

次のパス (今後24時間)

TLE

最新Source: Space-Track

元期: Sep 14, 2026, 17:14 UTC

1 42271U 95015GM  26257.71831484  .00055930  00000-0  44454-2 0  9999
2 42271  98.6761 351.5641 0003347 217.8491 142.2494 15.00202918585663

AllMySatでDMSP 5D-2 F13 DEBをリアルタイム追跡

Download on the App Store